• In Belgium
  • List of Countries
  • For 7 days
  • Water Temperature
  • Satellite Maps
  • Weather Map
  • Weather Widgets
  • user-avatar
    Login

    Hourly Weather Shkoder

    Today, 22 September, Saturday

    Time Temperature Precipitation Wind Pressure Humidity
    00:00 +21°C° 0 mm 1 mps 741 mmHg 70%
    01:00 +21°C° 0 mm 1 mps 741 mmHg 68%
    02:00 +20°C° 0 mm 1 mps 741 mmHg 68%
    03:00 +20°C° 0 mm 1 mps 741 mmHg 68%
    04:00 +20°C° 0 mm 1 mps 741 mmHg 68%
    05:00 +21°C° 0 mm 1 mps 741 mmHg 64%
    06:00 +22°C° 0 mm 1 mps 741 mmHg 61%
    07:00 +23°C° 0 mm 1 mps 741 mmHg 57%
    08:00 +25°C° 0 mm 1 mps 741 mmHg 51%
    09:00 +27°C° 0 mm 1 mps 742 mmHg 45%
    10:00 +29°C° 0 mm 1 mps 742 mmHg 40%
    11:00 +30°C° 0 mm 2 mps 741 mmHg 38%
    12:00 +30°C° 0 mm 2 mps 741 mmHg 37%
    13:00 +31°C° 0 mm 2 mps 741 mmHg 36%
    14:00 +30°C° 0 mm 2 mps 741 mmHg 40%
    15:00 +30°C° 0 mm 2 mps 741 mmHg 43%
    16:00 +29°C° 0 mm 2 mps 741 mmHg 47%
    17:00 +27°C° 0 mm 2 mps 741 mmHg 56%
    18:00 +24°C° 0 mm 1 mps 742 mmHg 66%
    19:00 +22°C° 0 mm 1 mps 742 mmHg 75%
    20:00 +22°C° 0 mm 1 mps 742 mmHg 75%
    21:00 +22°C° 0 mm 1 mps 743 mmHg 75%
    22:00 +21°C° 0 mm 1 mps 743 mmHg 75%
    23:00 +21°C° 0 mm 1 mps 743 mmHg 76%

    Tomorrow, 23 September, Sunday

    Time Temperature Precipitation Wind Pressure Humidity
    00:00 +21°C° 0 mm 1 mps 743 mmHg 76%
    01:00 +19°C° 0 mm 2 mps 743 mmHg 77%
    02:00 +19°C° 0 mm 2 mps 743 mmHg 78%
    03:00 +20°C° 0 mm 1 mps 743 mmHg 79%
    04:00 +20°C° 0 mm 1 mps 743 mmHg 80%
    05:00 +21°C° 0 mm 1 mps 743 mmHg 76%
    06:00 +22°C° 0 mm 1 mps 743 mmHg 71%
    07:00 +23°C° 0 mm 1 mps 744 mmHg 67%
    08:00 +25°C° 0 mm 1 mps 744 mmHg 58%
    09:00 +28°C° 0 mm 1 mps 744 mmHg 49%
    10:00 +30°C° 0 mm 1 mps 744 mmHg 40%
    11:00 +31°C° 0 mm 1 mps 744 mmHg 38%
    12:00 +31°C° 0 mm 2 mps 743 mmHg 36%
    13:00 +33°C° 0 mm 3 mps 743 mmHg 34%
    14:00 +31°C° 0 mm 2 mps 743 mmHg 36%
    15:00 +31°C° 0 mm 2 mps 742 mmHg 39%
    16:00 +30°C° 0 mm 2 mps 742 mmHg 42%
    17:00 +28°C° 0 mm 2 mps 742 mmHg 51%
    18:00 +25°C° 0 mm 1 mps 742 mmHg 60%
    19:00 +23°C° 0 mm 1 mps 742 mmHg 69%
    20:00 +22°C° 0 mm 1 mps 742 mmHg 68%
    21:00 +22°C° 0 mm 1 mps 742 mmHg 68%
    22:00 +21°C° 0 mm 1 mps 742 mmHg 67%
    23:00 +21°C° 0 mm 1 mps 742 mmHg 65%

    Day after tomorrow, 24 September, Monday

    Time Temperature Precipitation Wind Pressure Humidity
    00:00 +20°C° 0 mm 2 mps 742 mmHg 63%
    01:00 +20°C° 0 mm 2 mps 741 mmHg 61%
    02:00 +19°C° 0 mm 2 mps 741 mmHg 61%
    03:00 +19°C° 0 mm 2 mps 741 mmHg 62%
    04:00 +19°C° 0 mm 2 mps 740 mmHg 62%
    05:00 +20°C° 0 mm 2 mps 740 mmHg 59%
    06:00 +21°C° 0 mm 2 mps 740 mmHg 57%
    07:00 +23°C° 0 mm 2 mps 740 mmHg 54%
    08:00 +25°C° 0 mm 2 mps 741 mmHg 49%
    09:00 +27°C° 0 mm 2 mps 741 mmHg 44%
    10:00 +29°C° 0 mm 2 mps 741 mmHg 39%
    11:00 +30°C° 0 mm 2 mps 741 mmHg 39%
    12:00 +30°C° 0 mm 2 mps 741 mmHg 39%
    13:00 +30°C° 0 mm 3 mps 742 mmHg 38%
    14:00 +29°C° 0 mm 3 mps 742 mmHg 43%
    15:00 +27°C° 0 mm 3 mps 742 mmHg 47%
    16:00 +25°C° 0 mm 3 mps 742 mmHg 51%
    17:00 +22°C° 0 mm 4 mps 742 mmHg 54%
    18:00 +20°C° 0 mm 5 mps 743 mmHg 57%
    19:00 +17°C° 0 mm 5 mps 743 mmHg 59%
    20:00 +16°C° 0 mm 6 mps 744 mmHg 60%
    21:00 +15°C° 0 mm 6 mps 744 mmHg 60%
    22:00 +15°C° 0 mm 6 mps 745 mmHg 60%
    23:00 +14°C° 0 mm 6 mps 745 mmHg 60%

    25 September, Tuesday

    Time Temperature Precipitation Wind Pressure Humidity
    00:00 +14°C° 0 mm 6 mps 745 mmHg 59%
    01:00 +13°C° 0 mm 6 mps 745 mmHg 59%
    02:00 +13°C° 0 mm 6 mps 745 mmHg 59%
    03:00 +13°C° 0 mm 6 mps 745 mmHg 59%
    04:00 +13°C° 0 mm 6 mps 745 mmHg 59%
    05:00 +13°C° 0.2 mm 6 mps 746 mmHg 60%
    06:00 +12°C° 0.2 mm 7 mps 746 mmHg 61%
    07:00 +12°C° 0.2 mm 7 mps 746 mmHg 63%
    08:00 +12°C° 0.2 mm 7 mps 746 mmHg 61%
    09:00 +12°C° 0.2 mm 7 mps 747 mmHg 60%
    10:00 +14°C° 0.2 mm 7 mps 747 mmHg 59%
    11:00 +16°C° 0 mm 6 mps 747 mmHg 50%
    12:00 +19°C° 0 mm 6 mps 746 mmHg 41%
    13:00 +21°C° 0 mm 6 mps 746 mmHg 32%
    14:00 +20°C° 0 mm 6 mps 746 mmHg 32%
    15:00 +20°C° 0 mm 6 mps 746 mmHg 31%
    16:00 +20°C° 0 mm 6 mps 746 mmHg 31%
    17:00 +17°C° 0 mm 6 mps 747 mmHg 36%
    18:00 +15°C° 0 mm 6 mps 748 mmHg 41%
    19:00 +11°C° 0 mm 6 mps 749 mmHg 46%
    20:00 +11°C° 0 mm 6 mps 749 mmHg 49%
    21:00 +10°C° 0 mm 6 mps 750 mmHg 51%
    22:00 +9°C° 0 mm 6 mps 750 mmHg 53%
    23:00 +9°C° 0 mm 6 mps 750 mmHg 53%

    26 September, Wednesday

    Time Temperature Precipitation Wind Pressure Humidity
    00:00 +8°C° 0 mm 6 mps 751 mmHg 54%
    01:00 +8°C° 0 mm 6 mps 751 mmHg 54%
    02:00 +8°C° 0 mm 6 mps 751 mmHg 54%
    03:00 +7°C° 0 mm 6 mps 751 mmHg 55%
    04:00 +7°C° 0 mm 6 mps 751 mmHg 55%
    05:00 +7°C° 0 mm 6 mps 751 mmHg 51%
    06:00 +8°C° 0 mm 6 mps 751 mmHg 47%
    07:00 +9°C° 0 mm 6 mps 752 mmHg 43%
    08:00 +11°C° 0 mm 6 mps 751 mmHg 37%
    09:00 +14°C° 0 mm 6 mps 751 mmHg 30%
    10:00 +17°C° 0 mm 5 mps 751 mmHg 24%
    11:00 +19°C° 0 mm 5 mps 751 mmHg 23%
    12:00 +20°C° 0 mm 5 mps 751 mmHg 21%
    13:00 +21°C° 0 mm 5 mps 750 mmHg 20%
    14:00 +21°C° 0 mm 4 mps 750 mmHg 21%
    15:00 +20°C° 0 mm 4 mps 750 mmHg 21%
    16:00 +20°C° 0 mm 4 mps 750 mmHg 22%
    17:00 +18°C° 0 mm 4 mps 750 mmHg 27%
    18:00 +14°C° 0 mm 3 mps 750 mmHg 31%
    19:00 +12°C° 0 mm 3 mps 751 mmHg 35%
    20:00 +11°C° 0 mm 3 mps 751 mmHg 37%
    21:00 +11°C° 0 mm 3 mps 751 mmHg 38%
    22:00 +10°C° 0 mm 3 mps 751 mmHg 40%
    23:00 +10°C° 0 mm 3 mps 751 mmHg 39%

    27 September, Thursday

    Time Temperature Precipitation Wind Pressure Humidity
    00:00 +10°C° 0 mm 3 mps 750 mmHg 39%
    01:00 +10°C° 0 mm 3 mps 750 mmHg 39%
    02:00 +10°C° 0 mm 3 mps 750 mmHg 37%
    03:00 +10°C° 0 mm 3 mps 749 mmHg 36%
    04:00 +9°C° 0 mm 3 mps 749 mmHg 34%
    05:00 +11°C° 0 mm 3 mps 749 mmHg 32%
    06:00 +12°C° 0 mm 3 mps 748 mmHg 30%
    07:00 +13°C° 0 mm 3 mps 748 mmHg 29%
    08:00 +17°C° 0 mm 3 mps 747 mmHg 25%
    09:00 +20°C° 0 mm 3 mps 747 mmHg 21%
    10:00 +24°C° 0 mm 2 mps 746 mmHg 17%
    11:00 +24°C° 0 mm 3 mps 746 mmHg 16%
    12:00 +25°C° 0 mm 3 mps 745 mmHg 16%
    13:00 +26°C° 0 mm 3 mps 744 mmHg 16%
    14:00 +26°C° 0 mm 3 mps 744 mmHg 18%
    15:00 +26°C° 0 mm 4 mps 743 mmHg 20%
    16:00 +25°C° 0 mm 4 mps 743 mmHg 23%
    17:00 +22°C° 0 mm 4 mps 743 mmHg 26%
    18:00 +19°C° 0 mm 3 mps 742 mmHg 29%
    19:00 +17°C° 0 mm 3 mps 742 mmHg 32%
    20:00 +16°C° 0 mm 3 mps 742 mmHg 31%
    21:00 +16°C° 0 mm 3 mps 742 mmHg 31%
    22:00 +14°C° 0 mm 3 mps 742 mmHg 31%
    23:00 +14°C° 0 mm 3 mps 742 mmHg 30%
    Show more